Waarnemingen

Advertentie
Mijn weer
Boulmer, Groot Brittannië (3240): temperatuur & dauwpunt: 17.05.2018 00:00:00 - 23.05.2018 00:00:00 (BST)Boulmer, Groot Brittannië (3240): windsnelheid & windstoten: 17.05.2018 00:00:00 - 23.05.2018 00:00:00 (BST)Boulmer, Groot Brittannië (3240): windrichting: 17.05.2018 00:00:00 - 23.05.2018 00:00:00 (BST)Boulmer, Groot Brittannië (3240): luchtdruk: 17.05.2018 00:00:00 - 23.05.2018 00:00:00 (BST)Boulmer, Groot Brittannië (3240): zicht: 17.05.2018 00:00:00 - 23.05.2018 00:00:00 (BST)Boulmer, Groot Brittannië (3240): Zonneschijnduur: 17.05.2018 00:00:00 - 23.05.2018 00:00:00 (BST)Boulmer, Groot Brittannië (3240): neerslag: 17.05.2018 00:00:00 - 23.05.2018 00:00:00 (BST)
Datum & Tijd tt [°C] td [°C] ff [km/u] ff [kn] fx [km/u] fx [kn] dd ppp [hPa] vv [km] sd [min] rr [mm]
23.05.2018 00:00:00 8,9 8,4 13 7 - - NNW 1026,5 10 0 0,0
22.05.2018 23:00:00 8,9 8,4 15 8 - - NNW 1026,3 10 0 0,0
22.05.2018 22:00:00 8,9 8,4 16 9 - - NNW 1026,0 10 0 0,0
22.05.2018 21:00:00 9,0 8,4 15 8 - - NNW 1025,3 10 0 0,0
22.05.2018 20:00:00 9,1 8,4 18 10 - - NNW 1025,1 9 0 0,0
22.05.2018 19:00:00 9,4 8,5 18 10 - - NNW 1024,9 10 0 0,0
22.05.2018 18:00:00 9,8 8,6 18 10 - - NNW 1024,7 10 0 0,0
22.05.2018 17:00:00 9,8 9,0 22 12 - - NNW 1024,4 9 0 0,0
22.05.2018 16:00:00 9,9 8,7 22 12 - - NNW 1024,2 10 0 0,0
22.05.2018 15:00:00 10,5 8,7 22 12 - - N 1024,1 10 0 0,0
22.05.2018 14:00:00 10,6 9,2 26 14 - - N 1023,9 10 0 0,0
22.05.2018 13:00:00 10,1 9,0 28 15 - - NNW 1023,9 8 6 0,0
22.05.2018 12:00:00 10,2 9,2 24 13 - - N 1023,7 10 0 0,0
22.05.2018 11:00:00 9,3 8,8 24 13 - - NNW 1023,4 10 0 0,0
22.05.2018 10:00:00 9,2 8,9 22 12 - - NNW 1023,5 6 0 0,0
22.05.2018 09:00:00 8,6 8,4 22 12 46 25 N 1023,6 6 0 0,0
22.05.2018 08:00:00 8,3 8,1 26 14 - - N 1023,3 3,0 0 0,0
22.05.2018 07:00:00 8,4 8,2 26 14 - - NNW 1022,7 3,1 0 0,0
22.05.2018 06:00:00 8,0 7,8 24 13 - - NNW 1022,2 3,6 0 0,0
22.05.2018 05:00:00 8,3 8,1 26 14 - - NNW 1021,8 4,6 0 0,0
22.05.2018 04:00:00 8,2 8,0 24 13 - - NNW 1021,8 6 0 0,0
22.05.2018 03:00:00 8,3 8,0 22 12 - - N 1021,8 5 0 0,0
22.05.2018 02:00:00 8,5 8,1 22 12 - - N 1021,8 7 0 0,0
22.05.2018 01:00:00 8,7 8,1 21 11 - - N 1021,5 6 - 0,0
22.05.2018 00:00:00 10,0 8,7 22 12 - - NNW 1020,8 10 0 0,0
21.05.2018 23:00:00 9,3 7,9 9 5 - - NNO 1019,7 9 0 0,0
21.05.2018 22:00:00 10,3 7,9 2 1 - - Z 1019,2 10 0 0,0
21.05.2018 21:00:00 11,5 8,6 5 3 - - Z 1018,9 10 0 0,0
21.05.2018 20:00:00 12,9 8,6 8 4 - - ZZO 1018,6 10 30 0,0
21.05.2018 19:00:00 14,2 8,0 11 6 - - ZO 1018,3 10 54 0,0
21.05.2018 18:00:00 14,7 8,6 13 7 - - ZZO 1018,3 10 60 0,0
21.05.2018 17:00:00 13,6 9,3 22 12 - - ZZO 1018,2 10 60 0,0
21.05.2018 16:00:00 13,7 8,5 22 12 - - ZO 1018,5 10 60 0,0
21.05.2018 15:00:00 13,6 10,2 21 11 - - ZZO 1018,9 10 60 0,0
21.05.2018 14:00:00 13,4 9,4 15 8 - - ZO 1019,0 10 60 0,0
21.05.2018 13:00:00 13,3 9,5 15 8 - - ZO 1018,9 10 60 0,0
21.05.2018 12:00:00 12,7 10,0 21 11 - - ZO 1019,1 10 60 0,0
21.05.2018 11:00:00 10,9 9,1 21 11 - - ZO 1019,4 3,9 60 0,0
21.05.2018 10:00:00 12,0 10,3 15 8 - - ZO 1019,3 10 60 0,0
21.05.2018 09:00:00 11,1 11,1 9 5 - - Z 1019,5 6 42 0,0
21.05.2018 08:00:00 9,1 9,1 11 6 - - ZZO 1019,6 0,6 0 0,0
21.05.2018 07:00:00 9,0 9,0 9 5 - - Z 1019,2 0,2 0 0,0
21.05.2018 06:00:00 8,8 8,8 11 6 - - ZZO 1019,1 0,3 0 0,0
21.05.2018 05:00:00 8,5 8,5 8 4 - - ZZO 1018,9 0,2 0 0,0
21.05.2018 04:00:00 8,2 8,2 13 7 - - ZZO 1019,2 0,1 0 0,0
21.05.2018 03:00:00 8,5 8,5 15 8 - - ZZO 1019,4 0,2 0 0,0
21.05.2018 02:00:00 8,4 8,4 16 9 - - ZZO 1019,8 0,2 0 0,0
21.05.2018 01:00:00 8,7 8,6 18 10 - - ZZO 1020,3 0,4 - 0,0
21.05.2018 00:00:00 9,2 8,9 21 11 - - ZZO 1020,3 3,7 0 0,0
20.05.2018 23:00:00 8,7 8,1 11 6 - - ZO 1020,3 5 0 0,0
20.05.2018 22:00:00 9,1 8,3 5 3 - - ZO 1020,3 5 0 0,0
20.05.2018 21:00:00 9,9 8,7 9 5 - - ZO 1020,0 7 0 0,0
20.05.2018 20:00:00 10,8 8,9 16 9 - - ZO 1019,8 10 18 0,0
20.05.2018 19:00:00 11,8 9,6 13 7 - - ZZO 1019,6 10 42 0,0
20.05.2018 18:00:00 11,5 10,0 15 8 - - ZZO 1019,6 8 0 0,0
20.05.2018 17:00:00 11,4 9,6 18 10 - - ZZO 1019,7 8 0 0,0
20.05.2018 16:00:00 12,0 10,1 21 11 - - ZZO 1020,0 8 6 0,0
20.05.2018 15:00:00 11,8 9,6 21 11 - - ZZO 1020,5 7 36 0,0
20.05.2018 14:00:00 11,4 9,7 18 10 - - ZO 1020,6 7 6 0,0
20.05.2018 13:00:00 11,7 9,5 21 11 - - ZO 1020,7 7 0 0,0
20.05.2018 12:00:00 11,9 8,9 22 12 - - ZO 1020,8 10 0 0,0
20.05.2018 11:00:00 11,9 8,1 21 11 - - ZO 1020,9 10 0 0,0
20.05.2018 10:00:00 11,9 8,6 18 10 - - ZZO 1021,0 10 0 0,0
20.05.2018 09:00:00 11,7 8,2 13 7 - - ZO 1021,1 10 12 0,0
20.05.2018 08:00:00 10,3 7,8 11 6 - - ZZO 1020,9 10 42 0,0
20.05.2018 07:00:00 10,4 7,4 5 3 - - Z 1020,8 10 54 0,0
20.05.2018 06:00:00 7,9 5,1 9 5 - - ZW 1020,7 10 0 0,0
20.05.2018 05:00:00 8,9 5,5 11 6 - - Z 1020,4 10 0 0,0
20.05.2018 04:00:00 8,3 5,8 15 8 - - ZZW 1020,4 10 0 0,0
20.05.2018 03:00:00 8,4 5,9 9 5 - - ZZW 1020,6 10 0 0,0
20.05.2018 02:00:00 9,6 7,0 11 6 - - ZW 1020,6 10 0 0,0
20.05.2018 01:00:00 9,0 6,4 11 6 - - ZZO 1020,5 10 - 0,0
20.05.2018 00:00:00 8,2 6,6 9 5 - - ZZW 1020,8 10 0 0,0
19.05.2018 23:00:00 8,5 7,4 5 3 - - ZZW 1021,0 10 0 0,0
19.05.2018 22:00:00 9,2 7,7 4 2 - - Z 1021,0 10 0 0,0
19.05.2018 21:00:00 10,5 7,8 8 4 - - ZZO 1021,0 10 0 0,0
19.05.2018 20:00:00 11,2 7,3 16 9 - - ZZO 1020,8 10 24 0,0
19.05.2018 19:00:00 12,2 6,7 22 12 - - ZZO 1021,0 10 60 0,0
19.05.2018 18:00:00 12,8 7,1 22 12 - - ZZO 1021,3 10 60 0,0
19.05.2018 17:00:00 13,1 6,4 22 12 - - ZZO 1021,6 10 60 0,0
19.05.2018 16:00:00 13,2 7,8 22 12 - - ZZO 1022,0 10 60 0,0
19.05.2018 15:00:00 12,9 7,7 22 12 - - ZZO 1022,4 10 60 0,0
19.05.2018 14:00:00 13,0 8,2 26 14 - - ZO 1022,6 10 60 0,0
19.05.2018 13:00:00 12,9 9,3 24 13 - - ZO 1023,2 8 60 0,0
19.05.2018 12:00:00 12,8 8,3 24 13 - - ZO 1023,3 10 60 0,0
19.05.2018 11:00:00 13,7 8,4 15 8 - - ZO 1023,6 10 60 0,0
19.05.2018 10:00:00 13,9 7,1 8 4 - - OZO 1023,8 10 60 0,0
19.05.2018 09:00:00 14,0 8,5 8 4 - - O 1023,9 10 60 0,0
19.05.2018 08:00:00 12,5 7,7 2 1 - - W 1024,1 10 60 0,0
19.05.2018 07:00:00 8,9 7,1 2 1 - - ZW 1023,8 10 60 0,0
19.05.2018 06:00:00 5,0 4,0 4 2 - - NNW 1023,5 10 12 0,0
19.05.2018 05:00:00 4,6 3,0 2 1 - - ZZW 1023,3 10 0 0,0
19.05.2018 04:00:00 5,8 3,7 4 2 - - ZZO 1023,4 19 0 0,0
19.05.2018 03:00:00 6,0 3,0 4 2 - - Z 1023,6 10 0 0,0
19.05.2018 02:00:00 5,8 2,5 8 4 - - ZW 1023,8 10 0 0,0
19.05.2018 01:00:00 5,4 3,0 9 5 - - Z 1024,1 10 - 0,0
19.05.2018 00:00:00 6,3 3,4 5 3 - - ZZW 1024,4 10 0 0,0
18.05.2018 23:00:00 7,0 4,0 5 3 - - ZW 1024,8 10 0 0,0
18.05.2018 22:00:00 8,5 3,8 8 4 - - Z 1024,7 10 0 0,0
18.05.2018 21:00:00 10,1 5,6 9 5 - - Z 1024,5 10 36 0,0
18.05.2018 20:00:00 10,3 6,7 9 5 - - ZZO 1024,5 10 30 0,0
18.05.2018 19:00:00 11,4 6,9 15 8 - - ZZO 1024,5 10 60 0,0
18.05.2018 18:00:00 11,5 7,6 15 8 - - ZZO 1024,5 10 60 0,0
18.05.2018 17:00:00 11,6 7,0 16 9 - - ZZO 1024,7 10 60 0,0
18.05.2018 16:00:00 11,9 5,5 16 9 - - ZO 1024,8 10 60 0,0
18.05.2018 15:00:00 11,6 6,0 16 9 - - ZO 1025,0 10 60 0,0
18.05.2018 14:00:00 11,3 6,8 16 9 - - ZZO 1025,2 10 36 0,0
18.05.2018 13:00:00 12,1 5,5 16 9 - - ZO 1025,4 10 48 0,0
18.05.2018 12:00:00 12,7 6,1 13 7 - - ZO 1025,4 10 60 0,0
18.05.2018 11:00:00 12,0 6,7 11 6 - - ZO 1025,6 10 60 0,0
18.05.2018 10:00:00 10,6 4,0 9 5 - - O 1025,9 10 60 0,0
18.05.2018 09:00:00 10,8 5,1 4 2 - - Z 1026,1 10 60 0,0
18.05.2018 08:00:00 9,3 5,2 4 2 - - O 1026,2 10 60 0,0
18.05.2018 07:00:00 6,3 4,4 4 2 - - W 1026,0 10 60 0,0
18.05.2018 06:00:00 2,5 1,4 4 2 - - WZW 1026,2 10 24 0,0
18.05.2018 05:00:00 2,4 1,2 4 2 - - WNW 1026,3 10 0 0,0
18.05.2018 04:00:00 3,1 1,7 5 3 - - WZW 1026,4 10 0 0,0
18.05.2018 03:00:00 3,7 1,9 8 4 - - WZW 1026,9 10 0 0,0
18.05.2018 02:00:00 3,7 2,4 5 3 - - WZW 1027,2 10 0 0,0
18.05.2018 01:00:00 4,4 3,0 5 3 - - WZW 1027,7 10 - 0,0
18.05.2018 00:00:00 4,7 3,4 5 3 - - WZW 1028,2 10 0 0,0
17.05.2018 23:00:00 5,1 3,6 5 3 - - WZW 1028,5 10 0 0,0
17.05.2018 22:00:00 6,4 4,4 4 2 - - ZW 1028,6 10 0 0,0
17.05.2018 21:00:00 8,2 5,1 2 1 - - OZO 1028,6 10 36 0,0
17.05.2018 20:00:00 9,1 5,1 5 3 - - ONO 1028,6 10 54 0,0
17.05.2018 19:00:00 9,7 5,4 8 4 - - NNO 1029,0 10 60 0,0
17.05.2018 18:00:00 9,7 4,9 13 7 - - NNO 1029,0 10 60 0,0
17.05.2018 17:00:00 10,4 5,4 15 8 - - NNO 1029,5 10 60 0,0
17.05.2018 16:00:00 10,0 4,5 15 8 - - NNO 1029,6 29 60 0,0
17.05.2018 15:00:00 10,5 4,0 16 9 - - NNO 1029,9 10 60 0,0
17.05.2018 14:00:00 10,4 4,7 16 9 - - NNO 1030,2 10 60 0,0
17.05.2018 13:00:00 10,5 4,8 16 9 - - NNO 1030,5 10 60 0,0
17.05.2018 12:00:00 10,7 5,1 16 9 - - N 1030,8 10 60 0,0
17.05.2018 11:00:00 11,0 3,4 21 11 - - N 1030,9 10 60 0,0
17.05.2018 10:00:00 10,8 3,0 15 8 - - NNW 1030,8 10 60 0,0
17.05.2018 09:00:00 10,0 5,1 16 9 - - NW 1030,6 10 60 0,0
17.05.2018 08:00:00 9,2 5,9 13 7 - - WNW 1030,6 10 60 0,0
17.05.2018 07:00:00 7,1 4,6 13 7 - - WNW 1030,6 30 60 0,0
17.05.2018 06:00:00 4,9 3,2 15 8 - - W 1030,7 27 6 0,0
17.05.2018 05:00:00 4,4 2,8 15 8 - - W 1030,8 10 0 0,0
17.05.2018 04:00:00 4,8 3,3 11 6 - - W 1030,9 10 0 0,0
17.05.2018 03:00:00 4,8 3,3 13 7 - - WNW 1031,5 10 0 0,0
17.05.2018 02:00:00 5,5 3,9 5 3 - - WNW 1031,6 10 0 0,0
17.05.2018 01:00:00 5,6 3,6 8 4 - - WNW 1031,6 10 - 0,0
17.05.2018 00:00:00 5,7 3,7 5 3 - - WNW 1031,7 10 0 0,0

tt = temperatuur
td = dauwpunt
ff = windsnelheid
fx = windstoten
dd = windrichting
ppp = luchtdruk
vv = zicht
sd = Zonneschijnduur
rr = neerslag

Weerstations in de omgeving